This is the latest recevied weather packets stored in our database for station/object K7D3. If no packets are shown the sender has not sent any weather packets the latest 10 day(s).
| Time | Temp. | Humidity | Pressure | Rain* | Wind** | Luminosity | Snow |
|---|---|---|---|---|---|---|---|
| 1777850418 | 13.89° C | 49% | - | 0 mm | 5.36 m/s, 260° | - | - |
| 1777849936 | 13.89° C | 49% | - | 0 mm | 5.81 m/s, 274° | - | - |
| 1777849457 | 13.89° C | 48% | - | 0 mm | 4.92 m/s, 264° | - | - |
| 1777848979 | 13.89° C | 48% | - | 0 mm | 6.26 m/s, 256° | - | - |
| 1777848497 | 13.33° C | 47% | - | 0 mm | 8.94 m/s, 270° | - | - |
| 1777848019 | 13.89° C | 47% | - | 0 mm | 7.6 m/s, 259° | - | - |
| 1777847540 | 13.33° C | 47% | - | 0 mm | 6.26 m/s, 252° | - | - |
| 1777847058 | 13.89° C | 48% | - | 0 mm | 4.92 m/s, 273° | - | - |
| 1777846579 | 13.89° C | 47% | - | 0 mm | 7.6 m/s, 250° | - | - |
| 1777846101 | 13.89° C | 47% | - | 0 mm | 4.92 m/s, 250° | - | - |
| 1777845619 | 13.89° C | 48% | - | 0 mm | 6.26 m/s, 233° | - | - |
| 1777845140 | 13.33° C | 47% | - | 0 mm | 8.05 m/s, 221° | - | - |
| 1777844662 | 14.44° C | 46% | - | 0 mm | 7.6 m/s, 253° | - | - |
| 1777844180 | 14.44° C | 47% | - | 0 mm | 5.81 m/s, 257° | - | - |
| 1777843701 | 13.89° C | 48% | - | 0 mm | 6.26 m/s, 263° | - | - |
| 1777843223 | 14.44° C | 47% | - | 0 mm | 6.71 m/s, 262° | - | - |
| 1777842741 | 13.89° C | 49% | - | 0 mm | 8.05 m/s, 245° | - | - |
| 1777842262 | 13.89° C | 47% | - | 0 mm | 5.81 m/s, 236° | - | - |
| 1777841784 | 14.44° C | 49% | - | 0 mm | 7.15 m/s, 273° | - | - |
| 1777841302 | 13.89° C | 52% | - | 0 mm | 5.36 m/s, 250° | - | - |
| 1777840823 | 13.33° C | 52% | - | 0 mm | 5.81 m/s, 255° | - | - |
| 1777840345 | 12.78° C | 55% | - | 0 mm | 7.15 m/s, 236° | - | - |
| 1777839863 | 12.22° C | 56% | - | 0 mm | 5.36 m/s, 293° | - | - |
| 1777839384 | 12.22° C | 55% | - | 0 mm | 9.83 m/s, 243° | - | - |
| 1777838906 | 12.22° C | 54% | - | 0 mm | 7.15 m/s, 284° | - | - |
* Rain latest hour (hover to see other rain measurements)
** Current wind speed in m/s (hover to see current wind gust speed)